Regional Weather Roundup
Issued by NWS Glasgow, MT

Home | Current Version | Previous Version | Text Only | Print | Product List | Glossary On
Versions: 1 2 3 4 5 6 7 8 9 10 11 12 13 14 15 16 17 18 19 20 21 22 23 24 25 26 27 28
000
ASUS45 KGGW 270815
RWRGGW
HOURLY REGIONAL WEATHER ROUNDUP FOR NORTHEAST MONTANA
NATIONAL WEATHER SERVICE GLASGOW MONTANA
200 AM MDT WED JUL 27 2016

NOTE: "FAIR" INDICATES FEW OR NO CLOUDS BELOW 12,000 FEET WITH NO
SIGNIFICANT WEATHER AND/OR OBSTRUCTIONS TO VISISBILITY.

NORTHEAST MONTANA


CITY           SKY/WX    TMP DP  RH WIND       PRES   REMARKS
GLASGOW        LGT RAIN  61  59  93 E8        30.06F
PLENTYWOOD       N/A     60  54  80 E7          N/A
WOLF POINT     TSTM      66  59  78 W9        30.12R
JORDAN           N/A     62  60  93 E18       30.07F
WINNETT          N/A     62  57  83 W12G25      N/A
SIDNEY         CLOUDY    61  58  90 N3        30.10R
GLENDIVE       CLOUDY    65  59  81 E10       30.10R
MALTA            N/A     63  63 100 S3G12       N/A
SCOBEY           N/A     61  51  70 CALM      30.08
OPHEIM           N/A     61  55  82 E1        29.87S

FORT PECK REPORTS


CITY           SKY/WX    TMP DP  RH WIND       PRES   REMARKS
FORT PECK        N/A     60  60 100 E12G29      N/A
THE PINES        N/A     61  58  90 SE6G18      N/A

SOUTHEAST MONTANA


CITY           SKY/WX    TMP DP  RH WIND       PRES   REMARKS
BILLINGS       MOCLDY    66  54  65 N10       30.11F
MILES CITY     CLOUDY    70  58  65 E8        30.05F
BAKER          CLOUDY    60  55  83 E10       30.11F
LIVINGSTON     CLOUDY    57  44  62 S5        30.17R

CENTRAL MONTANA


CITY           SKY/WX    TMP DP  RH WIND       PRES   REMARKS
HAVRE          CLOUDY    61  58  90 S6        30.09R
LEWISTOWN      MOCLDY    61  54  77 E7        30.14F
GREAT FALLS    CLEAR     55  53  93 W8        30.14F
CUT BANK       MOCLDY    57  55  93 CALM      30.16R
HELENA         PTCLDY    65  52  62 W9        30.15R
BUTTE          CLEAR     49  40  71 SE7       30.23S
BOZEMAN        CLEAR     59  46  62 SW6       30.17R

WESTERN MONTANA


CITY           SKY/WX    TMP DP  RH WIND       PRES   REMARKS
MISSOULA       CLEAR     64  52  64 CALM      30.09S
KALISPELL      NOT AVBL

NORTH DAKOTA


CITY           SKY/WX    TMP DP  RH WIND       PRES   REMARKS
WILLISTON      CLEAR     63  54  72 CALM      30.10R
DICKINSON      MOCLDY    54  53  97 CALM      30.10S
MINOT          MOCLDY    65  62  90 N6        30.09R
BISMARCK       CLOUDY    63  60  90 N5        30.06R

SOUTHERN SASKATCHEWAN


CITY           SKY/WX    TMP DP  RH WIND       PRES   REMARKS
REGINA         PTCLDY    61  50  67 E5        30.14F
ESTEVAN        PTCLDY    54  54 100 NE6       30.11
SWIFT CURRENT  CLEAR     57  55  94 SE10      30.12F





USA.gov is the U.S. government's official web portal to all federal, state and local government web resources and services.